Weather History for Houston, TX

Change the Weather History Date:

Monday, December 22, 2014

  Actual Average Record
Temperature  
Mean Temperature 64 °F 53 °F  
Max Temperature 72 °F 63 °F 81 °F (1981)
Min Temperature 55 °F 44 °F 13 °F (1989)
Degree Days  
Heating Degree Days 1 12  
Month to date heating degree days 119 239  
Since 1 July heating degree days 367 424  
Growing Degree Days 14 (Base 50)    
Moisture  
Dew Point 58 °F    
Average Humidity 83    
Maximum Humidity 100    
Minimum Humidity 66    
Precipitation  
Precipitation T in 0.11 in 2.21 in (1910)
Month to date precipitation 3.98 2.75  
Year to date precipitation 42.10 48.78  
Sea Level Pressure  
Sea Level Pressure 29.73 in    
Wind  
Wind Speed 5 mph (SSW)    
Max Wind Speed 20 mph    
Max Gust Speed 30 mph    
Visibility 7 miles    
Events Fog    
T = Trace of Precipitation, MM = Missing Value Source: NWS Daily Summary

Daily Weather History Graph

Daily Weather History Graph

Search for Another Location

Airport:

Trip Planner

Search our weather history database for the weather conditions in past years. The results will help you decide how hot, cold, wet, or windy it might be!

Date:

Astronomy

Dec. 22, 2014 Rise Set
Actual Time 7:12 AM CST 5:27 PM CST
Civil Twilight 6:46 AM CST 5:53 PM CST
Nautical Twilight 6:16 AM CST 6:23 PM CST
Astronomical Twilight 5:47 AM CST 6:52 PM CST
Moon 7:31 AM CST (12/22) 6:30 PM CST (12/22)
Length of Visible Light 11h 07m
Length of Day
10h 14m
New Moon, 1% of the Moon is Illuminated
Dec 22
New Moon
Dec 28
First Quarter
Jan 4
Full
Jan 13
Last Quarter
Jan 20
New

Hourly Weather History & Observations

Time (CST) Temp. Dew Point Humidity Pressure Visibility Wind Dir Wind Speed Gust Speed Precip Events Conditions
12:53 AM 57.9 °F 57.0 °F 97% 29.88 in 6.0 mi Calm Calm - N/A   Overcast
1:53 AM 57.0 °F 55.9 °F 96% 29.86 in 7.0 mi Calm Calm - N/A   Mostly Cloudy
2:53 AM 57.0 °F 55.9 °F 96% 29.83 in 5.0 mi ESE 4.6 mph - N/A   Mostly Cloudy
3:53 AM 57.0 °F 55.9 °F 96% 29.80 in 4.0 mi SE 4.6 mph - N/A   Mostly Cloudy
4:53 AM 57.0 °F 55.9 °F 96% 29.78 in 2.0 mi Calm Calm - N/A   Scattered Clouds
5:02 AM 55.4 °F 55.4 °F 100% 29.76 in 0.5 mi Calm Calm - N/A Fog Fog
5:06 AM 55.4 °F 55.4 °F 100% 29.76 in 0.2 mi Calm Calm - N/A Fog Fog
5:51 AM 53.6 °F 53.6 °F 100% 29.76 in 0.2 mi Calm Calm - N/A Fog Fog
5:53 AM 53.6 °F 53.6 °F 100% 29.76 in 0.2 mi Calm Calm - N/A Fog Fog
6:07 AM 55.4 °F 55.4 °F 100% 29.76 in 2.0 mi SSE 3.5 mph - N/A   Mostly Cloudy
6:33 AM 57.2 °F 57.2 °F 100% 29.76 in 7.0 mi Calm Calm - N/A Fog Patches of Fog
6:53 AM 57.9 °F 57.9 °F 100% 29.77 in 9.0 mi SSE 4.6 mph - N/A   Mostly Cloudy
7:21 AM 59.0 °F 59.0 °F 100% 29.75 in 8.0 mi South 4.6 mph - N/A   Mostly Cloudy
7:53 AM 59.0 °F 59.0 °F 100% 29.76 in 8.0 mi SSE 6.9 mph - N/A   Mostly Cloudy
8:18 AM 62.6 °F 60.8 °F 94% 29.76 in 10.0 mi South 8.1 mph - N/A   Mostly Cloudy
8:32 AM 62.6 °F 62.6 °F 100% 29.76 in 10.0 mi SSW 9.2 mph - N/A   Mostly Cloudy
8:53 AM 64.0 °F 63.0 °F 96% 29.78 in 10.0 mi WSW 11.5 mph - N/A   Mostly Cloudy
9:00 AM 64.4 °F 62.6 °F 94% 29.77 in 10.0 mi WSW 12.7 mph - N/A   Overcast
9:36 AM 64.4 °F 62.6 °F 94% 29.78 in 10.0 mi SW 12.7 mph - N/A   Overcast
9:53 AM 64.9 °F 61.0 °F 87% 29.78 in 10.0 mi SW 15.0 mph - N/A   Mostly Cloudy
10:07 AM 66.2 °F 60.8 °F 83% 29.76 in 10.0 mi SSW 13.8 mph - N/A   Scattered Clouds
10:53 AM 66.9 °F 60.1 °F 79% 29.76 in 10.0 mi SW 13.8 mph 24.2 mph N/A   Mostly Cloudy
11:18 AM 68.0 °F 60.8 °F 78% 29.74 in 10.0 mi SW 20.7 mph 25.3 mph N/A   Mostly Cloudy
11:30 AM 69.8 °F 60.8 °F 73% 29.73 in 10.0 mi SW 12.7 mph - N/A   Mostly Cloudy
11:53 AM 71.6 °F 60.8 °F 69% 29.71 in 10.0 mi SW 13.8 mph 25.3 mph N/A   Mostly Cloudy
12:53 PM 73.0 °F 61.0 °F 66% 29.70 in 10.0 mi SW 15.0 mph 24.2 mph N/A   Mostly Cloudy
1:53 PM 73.0 °F 60.1 °F 64% 29.65 in 10.0 mi SW 13.8 mph - N/A   Mostly Cloudy
2:53 PM 73.9 °F 60.1 °F 62% 29.64 in 10.0 mi SW 15.0 mph - N/A   Mostly Cloudy
3:53 PM 75.0 °F 61.0 °F 62% 29.62 in 10.0 mi SSW 15.0 mph - N/A   Mostly Cloudy
4:53 PM 71.1 °F 62.1 °F 73% 29.64 in 10.0 mi SW 15.0 mph - N/A   Mostly Cloudy
5:53 PM 66.0 °F 60.1 °F 81% 29.65 in 10.0 mi SSW 11.5 mph - N/A   Mostly Cloudy
6:53 PM 62.1 °F 59.0 °F 90% 29.66 in 10.0 mi South 6.9 mph - N/A   Mostly Cloudy
7:53 PM 61.0 °F 59.0 °F 93% 29.67 in 10.0 mi SSW 5.8 mph - N/A   Scattered Clouds
8:53 PM 60.1 °F 57.9 °F 93% 29.67 in 10.0 mi South 6.9 mph - N/A   Scattered Clouds
9:53 PM 57.9 °F 57.0 °F 97% 29.70 in 9.0 mi Calm Calm - N/A   Partly Cloudy
10:53 PM 55.9 °F 55.0 °F 97% 29.70 in 4.0 mi Calm Calm - N/A   Mostly Cloudy
11:26 PM 55.4 °F 55.4 °F 100% 29.67 in 1.8 mi Calm Calm - N/A   Partly Cloudy
11:34 PM 57.2 °F 55.4 °F 94% 29.67 in 4.0 mi Calm Calm - N/A   Mostly Cloudy
11:53 PM 55.0 °F 55.0 °F 100% 29.68 in 3.0 mi Calm Calm - N/A   Mostly Cloudy